Lapse_Rate
6.6 6.2 6.2 5.9 5.8 5.9 5.6 5.8 5.8 5.9 5.6 5.8 6.1 6.2 6.0 6.2 6.1 4.0 4.1 4.8 4.3 7.2 6.2 5.1 5.9 6.7 7.0 6.6 6.8 6.9 6.5 6.5 6.5 6.5 6.5 6.8 6.5 6.9 6.5 6.8 6.4 5.8 6.0 4.8 2.1
6.2 6.2 6.1 6.0 6.0 6.0 5.9 5.8 5.9 5.8 5.8 6.1 6.3 6.2 5.9 5.4 4.5 4.0 5.1 6.8 7.4 8.2 6.8 5.2 5.2 6.8 6.7 6.6 6.8 6.6 6.5 6.5 6.5 6.5 6.5 6.6 6.7 6.9 6.7 6.7 6.7 6.6 5.3 2.3 2.0
3.8 4.0 4.3 4.8 5.5 6.0 6.0 6.0 5.5 5.3 5.7 6.4 6.6 6.4 5.7 5.2 5.4 5.9 7.0 7.2 8.2 8.6 8.0 7.1 6.3 6.9 6.9 7.0 6.9 6.7 6.5 6.5 6.6 6.9 7.0 6.6 6.6 7.0 6.6 6.5 6.8 6.8 6.4 3.5 3.3
3.5 3.8 4.5 5.0 5.4 5.6 5.6 5.4 5.5 5.3 6.6 6.9 7.1 6.3 5.6 5.8 6.5 6.5 8.8 8.3 5.7 6.3 6.9 7.6 7.8 7.0 6.5 6.5 7.1 6.5 6.7 6.8 6.8 7.1 6.9 6.5 7.2 6.7 6.9 6.8 7.4 6.3 5.9 4.5 4.9
3.4 3.8 4.7 5.2 5.2 5.5 5.5 5.6 5.9 6.8 6.4 6.3 6.5 6.3 6.2 5.7 6.5 6.3 6.5 6.4 6.1 6.9 6.9 6.6 6.9 7.1 6.5 6.6 6.8 6.5 6.5 6.9 7.1 7.2 7.1 7.3 6.6 6.7 6.8 7.3 6.9 6.4 6.2 6.6 6.5
3.3 4.1 4.6 4.6 4.9 5.3 5.6 6.3 7.4 6.8 5.6 5.8 6.5 5.6 6.6 6.5 6.4 5.7 6.5 6.6 6.8 6.8 6.2 6.1 6.7 7.7 7.0 6.6 6.5 6.8 6.8 6.7 7.0 6.9 7.0 6.6 6.5 6.8 7.1 7.7 7.1 6.9 7.1 6.9 6.4
3.4 3.7 3.8 3.7 3.9 5.3 7.1 7.2 6.9 6.6 6.0 5.8 6.5 6.6 6.6 6.8 6.5 5.9 6.5 6.8 6.5 5.8 5.9 6.8 8.0 7.4 7.2 6.5 7.3 6.9 6.5 6.5 6.5 6.7 6.6 6.9 6.5 6.5 7.3 7.3 7.2 7.4 7.0 6.8 6.9
3.0 3.4 3.2 3.3 3.9 6.1 6.8 6.7 5.9 5.9 6.1 5.8 6.2 6.1 6.5 6.9 6.2 6.2 6.2 6.6 6.8 6.0 6.4 7.5 8.3 7.7 7.3 7.3 6.8 6.5 6.5 6.5 6.5 6.5 6.6 6.7 6.5 6.5 7.1 7.1 6.9 7.2 7.8 7.5 7.2
3.1 3.1 3.2 3.6 5.0 6.8 6.3 5.6 5.7 5.5 5.6 5.8 5.7 5.9 6.6 6.8 5.8 5.7 6.2 7.1 8.0 7.7 8.1 8.0 8.1 7.1 7.0 6.5 6.5 6.5 6.5 6.5 6.5 6.5 6.5 6.5 6.5 6.5 7.2 7.1 6.9 7.0 7.2 7.4 7.2
2.9 2.7 3.5 4.3 6.7 5.9 5.2 4.9 5.1 4.9 5.4 5.4 5.7 6.0 6.0 6.1 6.5 6.5 7.4 7.8 7.4 7.2 6.6 6.6 7.1 6.5 6.5 6.5 6.5 6.5 6.5 6.5 6.5 6.5 6.5 6.5 6.5 6.5 6.9 6.8 6.7 7.0 7.1 7.1 7.3
3.1 2.8 3.0 4.8 5.2 5.5 4.0 4.5 4.5 4.9 4.7 6.1 5.8 5.9 6.2 5.7 6.2 5.7 5.3 6.2 7.0 6.6 6.5 6.7 6.5 6.5 6.5 6.5 6.5 6.5 6.5 6.5 6.5 6.5 6.5 6.5 6.5 6.5 6.5 6.7 6.6 6.9 6.9 7.2 7.2
3.2 3.1 3.1 4.2 5.1 5.2 3.1 5.6 5.4 5.9 6.5 6.2 5.3 5.2 5.3 5.5 5.4 5.4 5.3 6.1 6.4 6.5 6.5 6.5 6.5 6.5 6.5 6.5 6.5 6.5 6.5 6.5 6.5 6.5 6.5 6.5 6.5 6.5 6.5 6.5 6.8 6.9 7.0 6.9 7.3
3.5 3.4 2.8 3.6 4.7 2.3 2.4 3.9 5.2 5.6 6.4 5.9 5.5 5.2 5.7 5.8 5.9 4.9 5.6 5.7 6.5 6.5 6.5 6.5 6.5 6.5 6.5 6.5 6.5 6.5 6.5 6.5 6.5 6.5 6.5 6.5 6.5 6.5 6.5 6.6 6.8 7.1 7.3 7.4 7.3
3.4 3.5 2.8 2.9 3.9 2.7 3.2 3.7 3.8 4.1 6.5 6.5 6.4 6.4 6.0 5.8 6.3 5.7 5.2 6.4 6.4 6.5 6.5 6.5 6.5 6.5 6.5 6.5 6.5 6.5 6.5 6.5 6.5 6.5 6.5 6.5 6.5 6.5 6.5 6.5 6.5 6.6 6.9 7.2 7.4
3.5 3.6 3.6 2.7 2.5 3.0 3.5 2.9 3.4 4.6 6.5 6.5 6.5 6.5 6.2 6.4 6.3 6.4 5.6 6.0 6.5 6.5 6.5 6.5 6.5 6.5 6.5 6.5 6.5 6.5 6.5 6.5 6.5 6.5 6.5 6.5 6.5 6.5 6.5 6.5 6.5 6.5 7.0 7.4 6.8
4.2 3.5 3.1 1.8 1.2 2.8 2.4 1.9 3.7 6.5 6.5 6.5 6.5 6.5 6.5 6.3 6.5 6.1 6.3 6.4 6.3 6.5 6.5 6.5 6.1 6.5 6.5 6.5 6.5 6.5 6.5 6.5 6.5 6.5 6.5 6.5 6.5 6.5 6.5 6.5 6.5 6.5 7.0 7.5 7.7
4.7 3.9 2.6 3.0 2.5 2.3 1.6 3.3 6.5 6.5 6.5 6.5 6.5 6.5 6.5 6.5 6.5 6.5 6.5 6.5 6.5 6.5 6.5 6.5 6.5 6.5 6.5 6.5 6.5 6.5 6.5 6.5 6.5 6.5 6.5 6.5 6.5 6.5 6.5 6.5 6.5 6.5 6.9 7.3 7.8
5.3 3.5 3.0 3.3 2.6 1.9 2.2 6.1 6.5 6.5 6.5 6.5 6.5 6.5 6.5 6.5 6.5 6.5 6.5 6.5 6.5 6.5 6.5 6.5 6.5 6.5 6.5 6.5 6.5 6.5 6.5 6.5 6.5 6.5 6.5 6.5 6.5 6.5 6.5 6.6 6.9 7.1 7.2 7.4 7.6
3.8 1.2 2.3 2.3 3.1 2.0 3.3 6.5 6.5 6.5 6.5 6.5 6.5 6.5 6.5 6.5 6.5 6.5 6.5 6.5 6.5 6.5 6.5 6.5 6.5 6.5 6.5 6.5 6.5 6.5 6.5 6.5 6.5 6.5 6.5 6.5 6.5 6.5 6.5 6.5 6.5 6.7 7.0 7.1 7.4
2.4 2.8 3.1 3.2 2.9 2.5 5.5 6.5 6.5 6.5 6.5 6.5 6.5 6.5 6.5 6.5 6.5 6.5 6.5 6.5 6.5 6.5 6.5 6.5 6.5 6.5 6.5 6.5 6.5 6.5 6.5 6.5 6.5 6.5 6.5 6.5 6.5 6.5 6.5 6.5 6.5 6.5 6.7 7.1 7.5
3.1 3.5 3.7 3.9 2.7 2.3 6.5 6.5 6.5 6.4 6.3 6.5 6.5 6.5 6.5 6.5 6.5 6.5 6.5 6.5 6.5 6.5 6.5 6.5 6.5 6.5 6.5 6.5 6.5 6.5 6.5 6.5 6.5 6.5 6.5 6.5 6.5 6.5 6.5 6.5 6.5 6.5 6.9 7.2 7.4
4.7 6.3 3.6 3.4 4.7 6.4 6.5 6.5 6.8 6.5 6.2 6.5 6.5 6.5 6.5 6.5 6.5 6.5 6.5 6.5 6.4 6.4 6.5 6.5 6.5 6.5 6.5 6.5 6.5 6.5 6.5 6.5 6.5 6.5 6.5 6.5 6.5 6.5 6.5 6.5 6.6 6.7 7.1 7.4 7.6
4.2 5.0 5.6 5.8 6.5 6.5 6.4 6.5 6.4 6.5 6.5 6.5 6.5 6.5 6.5 6.5 6.5 6.5 6.5 6.3 6.0 6.5 6.5 6.5 6.5 6.5 6.5 6.5 6.5 6.5 6.5 6.5 6.5 6.5 6.5 6.5 6.5 6.5 6.5 6.5 6.8 6.8 7.1 7.3 7.5
3.6 6.5 5.2 6.0 6.7 6.5 6.5 6.5 6.5 6.3 6.5 6.4 6.5 6.5 6.5 6.5 6.5 6.5 6.5 6.5 6.5 6.3 6.9 6.6 6.5 6.5 6.5 6.5 6.5 6.5 6.5 6.5 6.5 6.5 6.5 6.5 6.5 6.5 6.5 6.5 6.5 6.8 7.1 7.3 7.4
4.3 5.8 5.6 6.5 6.6 6.5 6.5 6.5 6.5 6.5 6.2 6.3 6.5 6.5 6.5 6.5 6.5 6.5 6.5 6.5 6.4 6.6 6.6 6.5 6.5 6.5 6.5 6.5 6.5 6.5 6.5 6.5 6.5 6.5 6.5 6.5 6.5 6.5 6.5 6.5 6.6 7.0 7.1 7.1 7.3
4.6 5.9 6.3 5.4 5.3 6.5 6.5 6.5 6.5 6.5 6.5 6.5 6.5 6.5 6.5 6.5 6.5 6.5 6.5 6.5 6.5 6.5 6.5 6.5 6.5 6.5 6.5 6.5 6.5 6.5 6.5 6.5 6.5 6.5 6.5 6.5 6.5 6.5 6.7 6.7 6.7 6.9 7.0 7.0 7.1
5.1 5.2 5.8 6.4 6.5 6.5 6.5 6.5 6.5 6.5 5.9 6.2 6.5 6.5 6.5 6.5 6.6 6.4 6.4 6.6 6.6 6.5 6.5 6.5 6.5 6.5 6.5 6.5 6.5 6.5 6.5 6.5 6.5 6.5 6.5 6.5 6.5 6.5 6.5 6.5 6.6 6.7 6.9 6.9 6.4
Wind_Speed
24 24 24 24 24 22 23 22 20 21 22 18 20 22 22 21 20 3 6 8 8 7 4 0 1 2 3 2 2 4 8 16 20 21 19 9 8 8 5 11 6 6 4 2 5
24 24 24 24 22 22 18 22 21 21 20 19 20 20 18 4 3 5 12 11 10 12 3 2 2 1 2 4 3 6 12 21 18 18 14 15 16 18 10 7 8 7 3 3 9
25 24 24 24 23 23 22 19 21 22 21 20 20 17 2 7 2 4 9 1 7 2 4 2 3 3 4 5 6 6 14 19 20 21 20 18 19 8 18 21 8 7 5 5 7
24 24 24 24 23 22 20 20 20 20 20 20 18 14 10 1 5 4 10 11 13 11 4 2 4 2 5 6 8 13 17 20 20 17 17 22 23 22 25 23 10 10 7 4 9
25 25 25 24 23 22 20 19 19 20 20 19 15 9 5 3 3 5 11 10 11 1 5 4 3 3 5 5 9 14 16 17 18 19 18 22 25 24 29 11 8 10 9 12 13
27 28 28 27 24 22 19 18 18 16 15 19 14 16 3 3 3 7 6 4 5 2 3 1 3 4 6 6 8 10 15 17 16 21 22 22 24 22 25 18 14 15 16 11 11
28 29 28 28 25 20 18 16 15 12 11 19 1 6 3 1 2 8 4 2 1 3 2 2 3 3 3 6 6 9 11 16 13 11 17 15 18 26 20 13 17 20 15 13 16
29 30 30 27 22 17 15 14 8 10 9 8 12 3 3 1 2 5 3 2 2 5 5 4 5 1 3 3 6 7 8 8 6 15 7 10 12 12 16 16 13 18 21 17 19
29 31 30 25 19 15 11 9 8 5 6 5 3 2 3 2 4 4 3 1 1 4 1 7 4 2 4 4 6 5 7 10 12 7 9 6 11 14 18 9 15 14 12 11 14
28 30 29 24 18 12 10 6 4 5 1 1 3 3 4 3 3 4 1 3 3 3 3 3 2 1 2 4 4 7 9 7 14 6 17 16 19 12 13 10 13 17 15 13 15
26 27 27 24 21 15 6 1 4 5 8 3 3 1 1 6 2 2 3 2 2 2 1 1 1 3 8 9 12 12 14 15 16 16 8 14 17 17 16 13 16 15 14 12 12
25 26 24 23 15 17 5 5 4 2 3 2 1 2 2 2 3 2 2 3 2 1 2 2 3 6 7 11 11 10 14 15 11 9 5 15 19 21 16 15 16 18 15 13 12
24 25 27 22 6 7 6 4 5 4 1 3 1 2 3 1 1 4 4 3 2 1 3 4 4 5 6 8 8 8 8 14 15 13 8 8 10 6 10 11 11 15 16 11 13
23 26 26 24 5 1 3 6 8 2 4 2 2 1 1 1 3 4 5 2 2 2 3 4 3 2 6 5 5 12 3 6 9 9 5 5 6 8 9 12 10 9 7 9 11
20 24 18 16 1 3 5 12 8 1 3 2 1 1 4 1 4 2 4 1 4 4 2 7 4 6 5 6 2 6 7 7 6 4 4 1 1 7 8 12 17 15 15 16 5
16 20 14 6 3 2 12 8 1 5 3 1 1 5 5 4 2 5 1 1 2 2 2 7 4 3 4 3 2 6 4 4 2 1 1 1 2 6 9 14 18 19 18 18 20
13 12 6 3 3 14 8 2 4 4 1 2 2 3 1 3 4 3 3 4 1 4 3 5 3 4 1 2 1 5 4 3 4 3 4 5 4 4 10 12 15 15 19 18 18
11 5 3 1 10 9 3 5 4 2 3 1 1 2 1 3 2 4 4 3 1 3 1 2 5 2 4 1 2 2 2 4 4 3 3 8 5 3 4 11 12 13 14 16 19
6 2 2 3 11 3 4 4 5 4 1 2 2 2 3 1 1 4 2 3 3 5 4 3 4 4 1 2 2 1 2 1 1 1 1 4 5 4 10 13 16 17 19 18 17
1 2 2 11 11 3 4 4 3 1 2 1 3 2 3 2 3 4 3 3 3 3 2 3 3 1 4 1 0 2 2 0 2 3 3 4 5 6 9 14 17 19 18 18 17
3 3 2 13 2 4 3 5 3 2 2 3 4 2 5 2 3 2 4 4 3 2 3 3 3 4 3 1 1 1 1 4 3 1 2 4 4 7 5 7 12 16 17 17 18
1 3 4 5 4 2 1 2 5 3 1 3 2 3 4 4 3 4 6 5 1 4 3 3 3 3 7 4 4 1 4 4 4 5 3 2 9 9 4 5 12 16 16 16 16
1 2 3 3 2 2 2 3 3 2 3 3 4 6 2 4 3 5 4 4 5 6 5 5 1 3 6 5 1 2 3 3 3 3 7 4 7 4 15 13 11 15 16 14 16
2 2 1 2 1 1 2 4 3 3 4 4 3 1 3 4 7 4 4 4 2 5 9 5 6 7 7 6 4 1 3 4 5 4 5 13 22 23 13 15 14 13 15 13 13
2 4 4 2 3 3 2 4 3 4 2 4 3 9 5 4 3 7 5 5 7 10 2 4 5 6 10 6 5 6 8 7 10 14 9 21 18 21 16 15 13 13 14 15 15
4 3 1 2 3 5 7 5 7 5 4 5 10 6 7 8 8 9 5 4 6 1 5 4 6 5 6 9 11 14 16 13 14 14 14 18 23 14 12 8 10 12 13 15 15
2 0 3 4 4 4 5 6 7 6 7 7 6 6 10 15 13 13 10 11 7 6 5 4 3 3 5 4 5 8 15 17 6 7 7 7 8 8 7 8 8 8 12 13 15
Wind_Direction
326 325 322 319 315 313 309 313 322 319 306 301 302 297 289 286 292 142 235 233 195 260 266 324 37 113 122 203 222 307 253 255 257 254 265 294 266 266 245 243 230 216 211 256 152
335 331 330 330 330 329 338 328 323 321 320 318 315 308 298 19 91 249 254 239 251 262 286 228 313 178 183 193 199 200 250 258 265 268 268 260 254 260 269 256 247 244 241 49 155
334 332 332 330 329 327 323 323 320 317 316 317 312 315 81 133 33 285 331 211 165 356 275 280 219 167 227 191 200 212 249 258 264 272 282 285 262 248 248 251 235 242 273 167 187
334 332 330 328 324 323 323 323 322 317 319 317 316 331 147 169 292 6 56 90 41 12 331 96 355 296 255 245 232 258 250 262 273 275 276 268 268 270 250 255 247 241 248 189 202
335 333 329 325 321 321 320 320 317 322 328 321 307 135 111 89 225 30 51 50 61 340 61 54 345 317 270 309 312 272 284 281 288 295 276 267 263 264 261 267 255 261 258 250 237
335 331 328 324 320 318 317 319 322 329 347 340 311 153 125 228 105 36 60 117 129 97 317 206 173 139 270 252 283 318 319 304 299 288 279 273 266 261 262 256 253 259 259 251 246
336 334 331 328 321 316 317 320 327 325 2 344 130 127 154 251 31 321 333 336 165 158 132 201 257 174 1 289 316 300 304 302 283 293 293 252 267 260 275 259 260 256 259 246 240
341 339 337 333 330 325 323 332 327 340 343 355 110 89 91 48 337 27 58 30 107 150 162 227 163 195 213 265 290 283 267 287 282 316 317 8 268 291 348 356 284 241 269 252 240
345 346 346 343 342 339 346 336 322 334 351 349 42 336 73 331 33 330 71 89 221 114 128 63 95 215 207 239 276 227 269 277 306 58 1 1 299 306 307 315 319 305 285 284 262
351 354 357 350 351 359 345 1 357 339 304 32 88 63 12 327 287 308 274 26 55 37 52 61 110 235 234 225 275 297 291 280 296 301 305 299 284 286 277 250 255 273 277 270 262
352 355 1 5 2 358 356 26 14 7 31 65 293 269 334 302 296 329 21 36 23 116 223 48 33 248 241 221 260 279 289 290 291 296 303 280 274 281 277 264 264 263 240 251 264
353 351 349 354 7 21 29 64 65 315 325 31 33 296 273 263 5 329 85 92 93 148 118 14 257 252 286 286 272 255 284 291 291 290 252 281 289 293 276 258 241 250 262 230 251
355 350 345 343 349 44 72 56 337 335 262 295 226 252 265 80 308 264 154 159 145 220 194 194 252 320 290 305 297 254 261 286 291 329 294 327 293 297 299 295 258 251 262 263 239
355 355 349 339 70 344 40 332 339 291 74 294 292 274 165 220 288 212 208 174 208 261 321 240 275 264 290 280 272 284 288 322 317 335 311 32 295 303 309 326 337 330 275 292 304
357 358 3 37 342 44 300 319 316 66 18 223 313 138 306 217 306 233 204 107 224 227 91 257 280 301 283 260 274 256 313 293 305 286 296 328 136 272 316 8 7 358 8 1 284
354 0 1 21 38 234 306 303 68 43 270 27 28 1 10 359 288 317 279 191 247 301 229 258 286 239 227 288 255 305 326 13 28 30 338 310 25 288 15 22 20 21 13 5 354
346 6 37 355 333 316 316 31 29 119 60 350 332 3 0 294 315 15 322 320 241 353 334 326 295 297 290 310 338 27 43 330 353 3 234 18 331 291 27 23 24 15 6 3 1
333 31 17 93 327 323 19 47 88 225 265 1 284 296 329 340 9 327 303 303 114 133 78 67 332 349 344 118 266 304 153 154 260 255 309 331 243 151 8 16 12 6 1 2 357
1 15 17 312 340 9 61 47 212 224 210 343 309 26 320 339 299 340 240 235 241 179 176 137 266 305 227 311 139 248 238 185 258 239 262 273 284 254 4 6 4 359 352 353 353
4 20 330 321 336 54 77 240 241 233 134 145 175 158 245 270 342 47 304 217 264 193 135 199 321 257 287 329 252 176 146 326 18 282 288 260 270 260 339 348 351 350 346 341 345
38 10 283 329 49 46 151 230 291 247 194 171 202 253 226 252 172 226 255 277 240 151 95 132 134 284 328 208 260 357 167 69 114 188 279 292 270 218 210 7 347 337 342 334 337
51 339 331 353 49 39 239 282 320 262 201 250 221 220 216 195 233 231 236 227 197 167 212 185 149 247 236 285 255 293 185 115 112 293 221 253 269 291 108 12 355 352 339 326 331
123 275 4 4 106 333 286 279 263 254 217 204 237 204 164 214 257 216 255 269 254 207 197 188 192 348 337 354 26 168 171 127 125 113 237 246 264 148 347 340 345 348 322 321 327
85 312 331 27 30 151 294 272 271 258 248 208 248 156 185 220 228 264 243 269 282 214 235 176 187 182 221 204 153 213 241 212 165 223 263 246 275 294 308 320 327 326 299 310 318
126 230 187 230 216 204 143 186 261 282 221 200 276 226 212 251 221 229 251 265 263 243 173 175 235 192 244 217 192 217 219 212 213 236 233 271 273 287 299 300 302 296 291 315 324
158 172 174 226 141 178 203 196 226 234 181 229 232 244 220 239 210 266 256 203 228 316 186 186 259 202 256 223 222 248 247 227 225 235 239 257 274 268 262 265 281 292 304 306 315
166 110 142 205 176 174 210 211 213 160 250 224 212 256 258 248 246 257 259 259 233 198 201 222 218 208 252 209 216 270 248 237 208 192 174 215 229 215 275 286 280 288 296 293 296